Vertical_Velocity
-4 -3 -1 -2 -3 -5 -8 -7 -5 -4 -6 -3 -1 1 3 3 1 -1 -1 -2 -3 -2 -1 -1 -1 -1 -0 0 1 1 1 0 1 1 1 1 2 2 2 2 2 2 2 2 1 0 -1 -1 -1 -0 -0 -0 -0 0 1 -0 -0 -0 0 -0 -0 -0 -0 -1 -0 -0 0 -0 -1 -2 -3 -1 -1 -1 -2 -2 -2 -2 -3 -2 -1 -1 -1 -1 -1 -2
-2 -1 -2 -2 -4 -6 -8 -6 -5 -4 -6 -5 -3 -1 2 2 1 0 0 -1 -2 -3 -2 -1 -1 -0 -0 -1 -0 0 0 0 1 1 2 2 2 2 2 2 2 2 2 1 1 -0 -1 -1 -0 -0 -0 -0 0 1 1 0 -0 -0 -0 -1 -1 -1 -0 -0 0 0 -0 -1 -2 -2 -2 -2 -2 -2 -2 -1 -1 -1 -1 -1 -1 -1 -1 -2 -3 -3
-0 -1 -2 -2 -4 -6 -7 -6 -5 -4 -5 -5 -4 -2 1 1 0 -0 0 -1 -1 -2 -2 -2 -1 -0 -1 -1 -0 0 0 1 1 2 2 2 2 2 2 1 1 1 1 0 -0 -0 -0 -0 -0 -0 -0 -0 0 1 1 0 -0 -1 -1 -1 -1 -1 -1 -1 -1 -1 -1 -2 -2 -3 -2 -2 -3 -3 -3 -3 -3 -3 -3 -3 -3 -3 -3 -3 -3 -3
1 -2 -2 -1 -3 -5 -6 -5 -5 -4 -4 -4 -3 -2 0 -0 -1 -2 -1 -1 -1 -1 -2 -2 -1 -1 -1 -1 -0 0 1 1 2 2 3 3 3 2 1 1 0 0 0 -0 -0 -0 -0 0 0 0 -0 -1 -0 0 1 -0 -1 -1 -1 -1 -1 -1 -2 -2 -2 -2 -2 -2 -2 -3 -3 -4 -4 -4 -4 -4 -4 -4 -3 -3 -3 -2 -2 -1 -1 -2
2 -1 -1 -1 -2 -4 -4 -3 -3 -3 -3 -3 -2 -2 -1 -2 -2 -3 -2 -1 -1 -1 -2 -1 -1 -2 -2 -1 -1 0 2 2 3 3 3 3 3 2 1 -0 -1 -1 -0 -0 -0 -0 0 0 0 0 -0 -1 -0 0 1 -0 -1 -1 -0 0 -0 -1 -3 -2 -1 -1 -1 -2 -2 -3 -4 -4 -5 -5 -4 -4 -4 -3 -3 -2 -2 -1 -1 -1 -1 -1
1 0 1 -1 -3 -3 -2 -2 -1 -1 -2 -3 -3 -3 -3 -3 -3 -2 -2 -2 -2 -2 -2 -1 -1 -2 -2 -2 -1 0 2 3 3 3 4 4 3 2 0 -1 -2 -1 -1 -1 -0 0 0 0 0 -0 -0 -1 -0 0 0 -0 -0 -0 1 1 -0 -2 -2 -0 0 0 -0 -1 -2 -3 -4 -4 -4 -4 -4 -4 -3 -3 -2 -2 -1 -1 -1 -1 -1 -2
1 1 2 -1 -2 -2 -2 -1 -1 -1 -1 -2 -3 -3 -3 -3 -2 -2 -2 -2 -2 -2 -2 -1 -1 -1 -2 -2 -1 0 2 2 3 3 3 3 2 1 -1 -2 -2 -2 -1 -1 -0 0 0 0 0 -0 -1 -1 0 0 -0 -0 -0 0 1 0 -1 -1 -0 1 1 1 -0 -1 -2 -2 -3 -3 -4 -4 -4 -4 -3 -3 -2 -2 -1 -1 -1 -2 -2 -2
2 1 2 -1 -1 -1 -2 -2 -2 -1 -1 -1 -2 -3 -3 -3 -3 -3 -2 -1 -1 -0 -0 -1 -1 -1 -2 -2 -1 -1 -0 0 1 1 1 1 0 -1 -2 -2 -2 -2 -1 -0 0 0 0 -0 -0 -0 -1 -1 -0 -0 -1 -0 0 1 1 -0 -0 0 1 0 0 -1 -1 -1 -2 -2 -3 -3 -4 -4 -4 -3 -3 -2 -2 -1 -1 -2 -2 -2 -3 -3
1 1 1 -1 -1 -1 -2 -3 -2 -1 -0 -1 -2 -3 -3 -3 -3 -2 -0 -0 -1 -0 0 -0 -2 -3 -4 -3 -2 -2 -2 -2 -2 -2 -1 -1 -2 -2 -2 -1 -1 -1 -0 0 0 0 0 -0 -0 -1 -1 -1 -1 -1 -1 -1 0 1 1 0 0 1 1 0 -0 -1 -1 -1 -2 -2 -3 -3 -3 -3 -3 -3 -2 -2 -1 -1 -2 -2 -3 -3 -3 -3
0 0 -0 -0 -1 -1 -2 -3 -2 0 1 -0 -2 -2 -2 -0 0 0 0 -3 -3 -2 -0 -1 -3 -4 -4 -3 -2 -3 -3 -3 -3 -2 -1 -2 -2 -2 -1 -0 -0 -0 0 1 1 1 0 0 -0 -1 -1 -1 -1 -0 -1 0 1 2 1 1 1 1 1 0 0 -0 -1 -1 -2 -2 -3 -3 -2 -2 -2 -2 -2 -1 -2 -2 -2 -3 -3 -3 -3 -3
1 1 1 0 0 -0 -1 -2 -1 1 2 1 1 -0 -0 1 2 2 -0 -4 -5 -4 -2 -3 -3 -3 -2 -2 -2 -2 -2 -3 -3 -3 -1 -1 -1 -0 -0 0 -0 -0 0 1 1 1 0 -0 -1 -1 -1 -1 -0 1 1 1 1 1 1 1 1 1 1 1 -0 -1 -2 -2 -2 -2 -2 -2 -2 -1 -1 -1 -1 -2 -2 -2 -2 -2 -3 -2 -2 -2
1 2 1 0 0 0 -0 0 1 2 3 3 3 3 2 2 1 0 -2 -4 -4 -3 -2 -3 -3 -3 -2 -2 -1 -1 -0 -2 -3 -3 -1 -0 1 1 1 0 -0 -0 -0 -0 -1 -1 -1 -1 -1 -1 -1 -1 0 1 2 1 0 0 0 0 1 1 1 -0 -1 -2 -2 -1 -1 -1 -1 -1 -1 -1 -1 -1 -2 -2 -2 -2 -2 -2 -2 -2 -2 -2
2 2 2 1 0 -0 -1 1 3 3 3 1 -0 -2 -3 -2 -1 -1 -3 -4 -3 -1 0 -1 -2 -3 -3 -1 -0 0 -0 -2 -3 -3 -1 -1 0 1 2 1 -0 -1 -0 -1 -2 -3 -3 -2 -1 -1 -1 -0 1 2 2 1 1 1 2 1 1 0 -1 -1 -2 -1 -1 -1 -0 -0 -1 -1 -1 -1 -1 -1 -2 -2 -2 -2 -2 -2 -2 -2 -2 -2
3 3 3 2 0 -0 -0 0 0 -1 -3 -3 -5 -6 -5 -2 -0 -0 -1 -2 -3 -1 2 2 -0 -2 -2 -2 -1 -1 0 -1 -1 -2 -3 -3 -2 0 3 1 -1 -1 -0 -1 -4 -5 -4 -1 -1 -1 -1 0 1 1 1 1 1 1 0 -1 -1 -1 -1 -1 -1 -1 -0 -0 -0 -0 -0 -0 -0 -0 -1 -2 -2 -2 -2 -2 -2 -2 -2 -2 -2 -2
2 3 2 -0 -1 -1 -1 -1 -2 -5 -7 -5 -3 -2 1 2 1 -0 -1 -2 -2 -0 4 3 1 -1 -1 -2 -2 -1 1 1 -0 -2 -4 -5 -3 -0 3 1 -1 -2 -1 -2 -5 -6 -3 -1 -1 -2 -1 -1 -1 -2 -2 -2 -2 -2 -2 -2 -2 -1 -1 -0 0 0 0 -0 -0 -0 -0 -0 -0 -1 -1 -2 -3 -3 -3 -2 -2 -2 -2 -2 -2 -2
0 1 -1 -3 -4 -3 -2 -2 -3 -4 -4 -2 0 1 3 1 -1 -3 -2 -2 -1 2 6 5 3 1 -2 -3 -2 -0 0 1 -1 -3 -4 -6 -5 -1 2 1 -1 -3 -2 -3 -4 -4 -2 -1 -1 -1 -1 -2 -2 -2 -1 -1 -1 -1 -1 -1 -0 0 1 1 0 0 -0 -1 -1 -1 -0 -0 -0 -1 -1 -2 -3 -3 -3 -2 -2 -2 -2 -2 -2 -2
1 -0 -4 -3 -3 -3 -2 -2 -3 -4 -3 -1 0 -0 -2 -4 -4 -3 -1 0 2 4 4 3 2 1 -3 -3 -3 -3 -2 -1 -2 -3 -3 -6 -5 -2 2 2 -1 -3 -3 -3 -3 -3 -1 -1 -1 -1 -1 -1 0 2 2 1 1 1 1 1 1 1 1 1 0 -0 -1 -1 -1 -0 -0 -0 -1 -1 -2 -2 -2 -3 -3 -3 -2 -2 -1 -1 -2 -2
-1 -3 -4 -3 -4 -4 -2 -2 -2 -2 -1 -1 -0 -1 -1 -2 -2 0 2 3 3 3 1 0 -1 -2 -3 -3 -5 -7 -6 -2 -1 -2 -2 -5 -5 -2 3 2 0 -2 -2 -2 -2 -2 -1 -1 -1 -2 -1 0 2 3 3 2 1 1 1 1 1 1 0 -0 -1 -1 -1 -1 -1 -0 0 -0 -0 -1 -2 -2 -2 -2 -3 -3 -3 -2 -1 -1 -1 -1
-4 -4 -1 -5 -6 -6 -3 -3 -3 -3 -2 -3 -2 -1 1 -1 -1 1 2 1 0 -0 -1 -1 -2 -3 -3 -7 -8 -7 -5 -2 0 -0 -2 -5 -4 -1 4 3 1 -1 -2 -2 -2 -1 -1 -2 -2 -1 0 2 3 3 2 2 1 1 1 0 0 -0 -1 -1 -1 -1 -1 -1 -0 -0 -0 -0 -1 -1 -2 -2 -2 -2 -2 -3 -3 -2 -2 -1 -1 -1
-6 -3 -3 -6 -6 -4 -3 -5 -7 -7 -6 -6 -4 -2 -3 -3 -2 -1 -2 -2 -2 -2 -2 -2 -3 -5 -6 -8 -7 -5 -1 2 3 1 -2 -4 -3 -0 3 3 2 -0 -3 -4 -3 -2 -2 -2 -1 -0 2 2 2 2 1 1 1 0 -0 -0 -1 -1 -1 -1 -1 -1 -1 -1 -0 -0 -0 -1 -1 -1 -2 -2 -2 -2 -2 -3 -3 -3 -2 -2 -1 -1
-4 -6 -8 -6 -4 -4 -8 -9 -8 -7 -5 -2 -1 -1 -5 -5 -4 -4 -7 -4 -2 -1 -1 -3 -7 -9 -6 -3 -2 -1 2 5 5 3 -0 -2 -2 -2 1 3 2 -0 -3 -4 -3 -2 -2 -2 -1 -0 1 1 1 1 1 0 -0 -0 -1 -1 -1 -1 -1 -1 -1 -1 -1 -0 -0 0 -0 -0 -1 -1 -2 -2 -2 -3 -3 -3 -3 -3 -2 -2 -1 -1
-4 -7 -6 -1 -2 -7 -11 -9 -6 -3 -1 0 -1 -4 -8 -7 -7 -7 -9 -5 -3 -3 -5 -7 -8 -6 -0 1 2 2 3 5 5 4 3 1 -3 -5 -1 2 2 0 -4 -5 -4 -2 -1 -1 -1 -1 0 1 1 1 0 0 -0 -0 -0 -1 -1 -1 -1 -1 -1 -1 -0 0 0 0 0 -0 -1 -1 -2 -2 -3 -3 -3 -4 -4 -3 -2 -2 -1 -1
-3 -5 -1 3 0 -4 -6 -3 -2 -0 0 -2 -6 -10 -11 -9 -8 -8 -7 -3 -2 -3 -4 -4 -1 2 4 3 3 4 5 4 5 6 6 3 -3 -6 -2 2 2 -1 -5 -5 -3 -2 -1 -1 -2 -1 -0 1 1 1 0 0 0 0 -0 -0 -0 -1 -1 -1 -1 -0 -0 0 1 1 0 -0 -1 -1 -2 -2 -3 -3 -3 -4 -3 -3 -2 -1 -1 -1
5 1 2 1 -0 -2 -1 -1 -1 -1 -1 -3 -6 -7 -7 -6 -4 -2 0 2 2 3 3 5 6 5 2 1 2 3 2 3 5 7 6 1 -3 -5 -2 1 0 -2 -6 -5 -3 -1 -1 -2 -2 -2 -1 -0 0 0 0 1 0 0 0 -0 -0 -1 -1 -1 -1 -0 0 1 1 1 1 0 -0 -1 -2 -2 -2 -2 -3 -3 -3 -2 -2 -1 -1 -1
14 7 2 -1 -1 -1 -1 -1 -1 -1 -1 -3 -3 -3 -2 -0 2 4 6 8 8 7 7 7 5 2 -3 -1 -1 -1 -2 1 4 5 4 0 -2 -3 -1 -1 -1 -3 -6 -5 -2 0 -1 -3 -3 -3 -2 -2 -1 0 1 1 1 0 0 -0 -1 -1 -1 -1 -1 -0 0 1 1 1 1 0 -1 -1 -1 -2 -2 -2 -2 -2 -2 -2 -2 -1 -1 -1
18 13 5 1 0 1 1 1 1 1 0 -1 -1 -1 1 3 6 8 9 8 7 6 6 5 1 -2 -4 -2 -3 -5 -5 -0 2 2 1 0 -1 -3 -3 -2 -2 -3 -4 -3 -1 -0 -1 -3 -4 -4 -3 -3 -1 0 1 1 1 1 0 -0 -1 -1 -1 -1 -0 0 1 1 1 1 1 0 -1 -1 -1 -1 -1 -1 -1 -1 -2 -2 -1 -0 0 -1
18 19 15 8 4 2 1 2 3 3 2 1 0 0 2 6 9 10 7 2 2 3 4 1 -1 -3 -1 -1 -4 -7 -5 -1 0 -0 -0 2 0 -3 -6 -3 -2 -2 -3 -3 -2 -1 -0 -3 -4 -4 -3 -3 -1 0 1 2 1 1 0 -0 -1 -1 -1 -1 -0 0 1 1 1 1 1 0 -0 -0 -0 -0 -1 -1 -1 -1 -1 -1 -0 1 -1 -3
11 18 24 21 15 8 3 2 2 2 3 2 2 3 4 6 7 4 -3 -4 -0 4 3 -1 -2 -2 -0 -3 -6 -7 -4 -1 -1 -1 1 3 1 -4 -8 -4 -2 -2 -2 -2 -1 -0 1 -3 -4 -4 -3 -2 -1 0 0 1 1 1 -0 -1 -1 -1 -1 -1 -0 0 1 1 1 1 1 0 0 -0 -0 -0 -0 -1 -1 -1 -0 0 0 0 -2 -5
3 7 14 22 25 24 19 12 7 5 4 5 6 8 8 4 -1 -6 -11 -2 4 6 1 -2 -3 -2 -2 -4 -3 -2 -1 -2 -2 -1 2 4 -0 -6 -8 -2 -1 -2 -1 1 1 0 -1 -4 -5 -4 -3 -2 -1 -1 -1 0 1 0 -1 -1 -1 -1 -1 -1 -0 0 1 1 1 1 1 0 0 -0 -0 -0 -0 -1 -1 -1 1 2 0 -1 -3 -5
-0 1 2 6 14 22 29 26 21 15 10 8 9 12 14 5 -3 -6 -3 5 7 4 -1 -2 -1 -1 -1 2 4 3 -2 -6 -5 -1 3 3 -2 -7 -6 -2 -2 -3 0 4 4 1 -5 -8 -7 -4 -3 -1 -1 -2 -2 -1 -1 -1 -1 -1 -1 -1 -1 -0 0 1 1 1 1 1 1 0 0 -0 -0 -0 -1 -1 -1 -0 2 2 0 -2 -3 -5
-2 -1 -1 -1 2 7 14 20 22 22 18 14 13 14 17 11 4 1 5 6 4 0 -2 -1 -0 0 0 3 3 0 -6 -11 -7 -1 0 -1 -5 -8 -4 -2 -3 -3 0 3 3 -0 -6 -9 -8 -6 -2 -2 -2 -3 -3 -2 -2 -2 -2 -1 -2 -2 -1 0 1 1 0 1 1 1 0 0 -0 -0 -0 -1 -1 -1 -1 0 2 3 0 -2 -4 -5
-3 -3 -3 -3 -1 0 2 6 10 14 16 16 15 14 15 14 10 6 4 2 0 -1 -0 -0 0 1 1 -0 -4 -8 -11 -11 -7 -2 -2 -2 -4 -6 -3 -2 -2 -2 -0 1 -0 -3 -6 -8 -8 -5 -2 -3 -4 -4 -3 -2 -2 -2 -1 -2 -3 -3 -2 1 1 -0 -1 0 0 0 -0 -0 -0 -1 -0 -1 -1 -1 -1 0 2 3 1 -2 -4 -6
-4 -4 -5 -3 -2 -2 -1 -0 1 3 6 9 11 12 12 15 15 12 6 2 0 -1 -1 -1 0 1 2 -1 -5 -8 -10 -7 -4 -1 -1 -1 -1 -2 -2 -0 -0 -0 1 2 1 -1 -4 -6 -5 -3 -2 -3 -3 -4 -3 -3 -2 -2 -1 -2 -3 -4 -2 1 0 -1 -2 -1 -0 -0 -1 -0 -0 -0 -0 -0 -1 -1 -1 -0 2 3 3 -0 -3 -5
-4 -4 -4 -3 -3 -3 -3 -2 -2 -1 -0 2 4 7 9 13 18 19 14 7 3 -0 -3 -4 -4 -2 -0 -1 -3 -5 -8 -6 -3 1 2 1 -1 -2 -1 -0 -0 0 2 2 2 1 -2 -5 -4 -1 -1 -3 -3 -3 -3 -3 -3 -2 -1 -2 -3 -4 -3 -1 -0 -1 -2 -1 -1 -2 -2 -1 -0 0 -0 -0 -1 -1 -2 -1 0 2 3 2 -0 -2
-3 -3 -3 -3 -4 -4 -4 -4 -3 -3 -2 -2 -1 0 3 6 13 18 21 15 9 3 -2 -6 -7 -6 -4 -4 -5 -8 -12 -10 -4 2 3 1 -1 -1 0 -1 -2 -0 2 0 0 0 -2 -4 -3 -2 -2 -3 -4 -4 -2 -2 -2 -2 -2 -3 -3 -4 -4 -2 -1 -1 -2 -2 -3 -3 -3 -2 -1 -1 -2 -2 -2 -2 -2 -2 -2 -0 1 3 3 2
-3 -3 -3 -3 -4 -4 -5 -5 -4 -4 -3 -4 -4 -3 -3 -2 1 7 14 18 15 10 4 -1 -5 -6 -6 -5 -6 -9 -14 -8 -2 3 3 0 -0 0 1 -3 -3 -1 2 -0 -1 -2 -3 -4 -3 -1 0 -2 -5 -6 -4 -1 -0 -1 -4 -4 -4 -4 -4 -2 -1 -1 -2 -4 -4 -4 -3 -2 -3 -3 -4 -3 -3 -3 -3 -3 -2 -1 1 3 4 5
-2 -3 -3 -2 -3 -4 -5 -6 -5 -5 -5 -5 -5 -5 -5 -6 -6 -5 -1 7 12 14 10 5 1 -2 -5 -5 -6 -6 -7 -0 3 4 2 1 1 1 -1 -4 -3 -1 0 -1 -2 -2 -1 -1 -0 0 1 -3 -6 -7 -6 -2 -1 -2 -5 -4 -4 -3 -5 -4 -3 -2 -3 -5 -5 -5 -3 -2 -3 -4 -5 -4 -3 -3 -4 -3 -1 0 2 2 3 3
-1 -2 -2 -1 -2 -3 -5 -6 -7 -7 -6 -5 -5 -5 -4 -5 -5 -6 -5 -2 3 8 11 9 5 1 -3 -5 -5 -4 0 6 6 3 2 1 0 -0 -1 -1 -1 -1 -2 -2 -1 0 2 2 1 -1 -3 -7 -8 -7 -4 -1 -1 -3 -5 -3 -2 -3 -5 -4 -3 -3 -4 -5 -5 -5 -3 -3 -3 -4 -5 -4 -3 -3 -4 -4 -2 0 2 0 -0 0
0 -0 -1 -0 -1 -2 -4 -7 -9 -8 -5 -4 -3 -2 -1 -1 -1 -1 -1 -1 0 2 5 7 6 3 -1 -3 -4 -3 2 4 4 2 2 1 -1 -1 -0 1 -0 -2 -3 -0 2 4 4 1 -2 -5 -7 -7 -7 -6 -3 -1 -2 -4 -3 -2 -3 -4 -5 -3 -3 -4 -5 -4 -5 -5 -5 -3 -2 -2 -4 -3 -2 -3 -5 -5 -4 -2 0 -1 -4 -5
-3 -2 -2 -1 -1 -2 -5 -9 -10 -8 -3 -1 0 1 2 0 -0 -0 -1 0 1 2 3 6 7 7 4 1 -1 -1 -0 0 1 2 3 1 -0 -1 -0 0 -0 -1 0 3 4 5 4 1 -3 -5 -4 -4 -5 -5 -4 -3 -3 -3 0 -1 -5 -8 -6 -3 -4 -6 -6 -4 -5 -5 -6 -4 -3 -2 -3 -3 -2 -3 -4 -4 -4 -3 -0 0 -3 -7
-5 -5 -6 -4 -2 -1 -3 -7 -7 -4 -1 1 2 1 -1 -1 -2 -2 -2 -2 -1 0 2 6 11 13 12 9 5 3 1 0 1 3 3 2 2 1 1 0 1 2 4 5 5 3 2 1 -0 -1 -1 -3 -4 -5 -5 -6 -4 -1 2 -2 -7 -9 -5 -3 -4 -6 -6 -6 -6 -5 -4 -5 -4 -3 -2 -2 -2 -3 -2 -2 -4 -4 -2 -0 -0 -2
-4 -6 -8 -5 -2 -1 -2 -2 -1 -0 0 1 -0 -2 -5 -3 -2 -1 -1 -1 -2 -2 -1 4 9 14 17 15 12 9 6 3 2 2 3 4 4 5 5 4 4 5 7 7 6 4 1 1 1 -1 -2 -2 -1 -2 -6 -7 -4 -0 1 -3 -6 -6 -5 -8 -6 -3 -3 -7 -7 -4 -2 -4 -4 -3 -2 -2 -2 -3 -1 -2 -3 -3 -3 -3 -2 -2
-4 -6 -7 -4 -3 -1 1 3 4 3 1 -1 -3 -6 -6 -3 0 1 1 -1 -3 -4 -3 -1 3 7 11 11 11 11 9 5 3 3 3 4 5 6 8 8 8 8 9 8 6 2 -0 2 1 -2 -4 -0 1 -2 -7 -8 -5 -1 -1 -2 -0 0 -5 -15 -11 -3 -1 -5 -6 -4 -3 -3 -3 -2 -1 -2 -3 -3 -3 -3 -3 -3 -2 -2 -2 -3
-3 -3 -2 -1 -0 1 4 5 3 1 -0 -2 -5 -6 -5 -1 2 3 3 -0 -2 -2 -1 -1 2 4 7 4 4 4 4 3 3 3 2 1 3 5 7 9 9 9 9 6 3 1 1 2 -1 -3 -2 2 2 -2 -6 -6 -5 -3 -3 -1 1 0 -8 -14 -10 -4 -3 -5 -5 -3 -3 -1 -0 0 -1 -2 -3 -4 -3 -3 -4 -4 -3 -1 -1 -2
2 2 2 2 3 3 4 1 0 0 0 -2 -4 -4 -3 -0 2 4 3 1 0 0 0 1 4 7 5 -1 -3 -3 -1 -1 -1 -1 -1 0 2 3 5 6 6 6 5 2 1 0 2 -0 -3 -3 2 4 2 -2 -5 -5 -4 -3 -3 -1 -0 -3 -11 -11 -7 -3 -4 -5 -5 -4 -2 2 4 3 -1 -4 -5 -4 -3 -3 -4 -5 -5 -2 -1 -1
4 4 3 3 3 2 -0 -1 0 2 2 -0 -2 -2 -2 0 2 2 2 2 3 2 1 2 4 4 -1 -6 -5 -3 -2 -3 -5 -5 -3 -1 1 3 3 3 3 3 3 1 0 0 1 -1 -1 1 6 4 1 -4 -7 -3 -2 -2 -5 -1 0 -1 -7 -7 -6 -5 -5 -5 -6 -5 -1 5 6 3 -2 -5 -6 -5 -5 -4 -4 -6 -6 -4 -3 -2
4 3 2 2 1 1 -1 1 3 4 2 -0 -1 -2 -1 1 1 2 2 3 4 4 4 4 3 1 -4 -4 -3 -2 -3 -5 -7 -7 -6 -3 0 2 3 3 3 3 3 2 2 1 0 0 2 5 7 5 1 -4 -7 -2 1 0 -3 -2 -0 -1 -4 -8 -7 -5 -3 -4 -6 -5 -1 5 5 1 -3 -4 -5 -6 -7 -6 -5 -5 -5 -4 -4 -4
3 2 1 1 2 2 2 3 4 3 1 -1 -2 -1 0 0 1 1 1 2 4 6 6 4 2 -0 -2 -1 -1 -1 -3 -4 -5 -5 -5 -3 -0 2 4 4 4 4 4 3 3 2 1 1 2 4 4 4 2 -2 -6 -1 2 2 -1 -1 -0 -1 -6 -10 -8 -4 -1 -3 -5 -4 2 4 2 -1 -2 -2 -4 -7 -8 -7 -6 -5 -4 -4 -4 -5
4 3 1 2 3 3 2 2 2 2 0 -1 -1 -0 0 0 1 2 1 2 4 5 5 1 -1 -2 -1 -1 -0 1 2 1 0 0 -0 0 1 3 5 5 6 5 5 4 3 2 2 1 1 1 1 3 2 -0 -3 -0 2 3 2 1 -0 -2 -6 -10 -8 -4 -0 -3 -4 -2 2 2 1 2 4 2 -4 -9 -9 -7 -7 -7 -6 -4 -4 -5
5 3 3 3 3 2 1 2 2 1 -1 -1 -1 -0 -0 1 2 2 2 3 4 4 1 -1 -2 -2 -2 -3 -1 1 3 3 3 3 3 2 2 2 3 4 5 5 4 3 3 3 3 1 -2 -4 -4 -1 1 2 1 -1 0 2 4 -1 -2 -3 -4 -8 -8 -5 -1 -2 -3 -2 0 0 1 3 6 3 -3 -8 -9 -8 -8 -9 -8 -5 -4 -5
4 4 4 4 3 2 2 2 2 1 -1 -1 -0 0 1 2 3 4 4 4 4 2 1 -0 -1 -2 -3 -3 -1 0 1 2 2 2 2 2 1 1 -0 1 2 3 3 3 2 2 3 1 -2 -7 -11 -9 -3 1 2 -1 -0 1 0 -5 -5 -2 -2 -6 -7 -6 -2 -2 -2 -2 -0 -0 0 2 4 3 0 -4 -8 -9 -10 -11 -9 -5 -4 -6
Height
1403 1403 1403 1403 1404 1403 1402 1403 1404 1405 1404 1405 1405 1406 1407 1408 1408 1408 1409 1409 1409 1409 1409 1410 1410 1410 1411 1412 1413 1415 1416 1417 1418 1420 1421 1421 1422 1423 1423 1424 1425 1425 1426 1426 1427 1427 1428 1428 1429 1429 1430 1430 1431 1432 1432 1433 1433 1434 1434 1435 1435 1436 1436 1437 1438 1438 1439 1439 1439 1440 1440 1440 1441 1441 1441 1441 1442 1442 1441 1441 1441 1441 1441 1441 1440 1440
1400 1400 1400 1400 1400 1400 1399 1399 1400 1401 1401 1401 1402 1403 1404 1405 1405 1405 1406 1406 1406 1406 1406 1407 1407 1408 1409 1410 1411 1412 1413 1415 1416 1417 1418 1419 1419 1420 1420 1421 1422 1423 1423 1423 1424 1424 1425 1425 1425 1426 1427 1427 1428 1429 1429 1430 1430 1431 1431 1432 1432 1433 1434 1434 1435 1435 1436 1436 1436 1437 1437 1437 1437 1438 1438 1438 1438 1438 1438 1438 1438 1437 1437 1437 1436 1436
1398 1397 1396 1396 1397 1396 1395 1396 1397 1398 1398 1399 1399 1400 1401 1401 1401 1402 1402 1403 1403 1403 1404 1404 1405 1405 1406 1407 1408 1410 1410 1412 1413 1414 1415 1415 1416 1417 1418 1418 1419 1419 1420 1420 1420 1421 1421 1422 1422 1423 1424 1424 1425 1426 1426 1427 1427 1428 1428 1429 1429 1430 1430 1431 1431 1432 1432 1433 1433 1433 1434 1434 1434 1434 1435 1435 1435 1435 1434 1434 1434 1434 1433 1433 1433 1433
1395 1394 1393 1394 1394 1393 1393 1393 1394 1394 1395 1396 1396 1397 1398 1398 1398 1398 1399 1400 1400 1400 1401 1401 1402 1402 1403 1404 1405 1407 1408 1409 1410 1411 1412 1412 1413 1414 1414 1415 1415 1416 1416 1417 1417 1418 1418 1419 1419 1420 1420 1421 1422 1423 1423 1424 1425 1425 1425 1426 1427 1427 1427 1428 1428 1429 1429 1430 1430 1430 1430 1430 1431 1431 1431 1431 1431 1431 1431 1430 1430 1430 1430 1430 1430 1429
1391 1391 1390 1391 1391 1390 1390 1390 1391 1391 1392 1392 1393 1394 1394 1394 1394 1394 1395 1396 1397 1397 1397 1398 1399 1399 1400 1401 1402 1404 1405 1406 1407 1408 1409 1409 1410 1410 1411 1411 1412 1413 1413 1414 1414 1415 1415 1416 1416 1417 1418 1418 1419 1420 1420 1421 1422 1422 1423 1424 1424 1424 1425 1425 1426 1426 1427 1427 1427 1427 1427 1427 1428 1428 1428 1428 1428 1428 1428 1427 1427 1427 1426 1426 1426 1426
1388 1388 1388 1389 1388 1388 1388 1388 1388 1389 1389 1389 1390 1390 1390 1390 1391 1391 1391 1392 1393 1393 1394 1395 1395 1396 1397 1397 1399 1400 1402 1403 1404 1405 1405 1406 1406 1407 1407 1408 1409 1409 1410 1410 1411 1411 1412 1413 1413 1414 1415 1415 1416 1417 1418 1419 1419 1420 1420 1421 1421 1422 1422 1423 1423 1424 1424 1424 1424 1424 1425 1425 1425 1425 1425 1425 1425 1425 1424 1424 1424 1423 1423 1423 1423 1422
1385 1385 1386 1386 1385 1385 1385 1385 1385 1386 1386 1386 1386 1386 1387 1387 1388 1388 1388 1388 1389 1390 1390 1391 1392 1393 1393 1394 1395 1397 1398 1399 1400 1401 1401 1402 1403 1403 1404 1405 1405 1406 1406 1407 1407 1408 1409 1409 1410 1411 1412 1412 1413 1414 1415 1416 1416 1417 1418 1418 1419 1419 1420 1420 1420 1421 1421 1421 1421 1421 1421 1422 1422 1422 1422 1422 1421 1421 1421 1420 1420 1420 1420 1420 1419 1419
1382 1382 1383 1383 1382 1382 1382 1382 1383 1383 1384 1383 1383 1383 1383 1384 1384 1384 1385 1385 1386 1386 1387 1388 1388 1389 1390 1391 1392 1393 1394 1395 1396 1397 1398 1398 1399 1400 1400 1401 1402 1402 1403 1404 1404 1405 1405 1406 1407 1408 1409 1410 1410 1411 1412 1413 1414 1415 1415 1415 1416 1416 1417 1417 1417 1418 1418 1418 1418 1418 1419 1419 1419 1419 1419 1418 1418 1418 1418 1417 1417 1417 1416 1416 1416 1416
1379 1379 1379 1380 1380 1380 1379 1379 1380 1380 1381 1381 1380 1380 1380 1380 1380 1381 1382 1382 1383 1383 1384 1385 1385 1385 1386 1387 1389 1390 1390 1391 1392 1393 1394 1395 1395 1396 1397 1398 1398 1399 1399 1400 1400 1401 1402 1403 1404 1405 1406 1407 1408 1409 1410 1410 1411 1412 1412 1413 1413 1414 1414 1414 1415 1415 1415 1415 1415 1415 1415 1415 1415 1415 1415 1415 1415 1415 1415 1414 1414 1414 1413 1413 1413 1413
1376 1376 1376 1376 1376 1377 1377 1376 1376 1377 1378 1378 1378 1378 1378 1378 1378 1378 1378 1378 1379 1380 1381 1381 1381 1382 1383 1384 1385 1386 1387 1388 1389 1389 1390 1390 1391 1392 1393 1394 1395 1395 1396 1396 1397 1398 1399 1400 1401 1402 1403 1404 1405 1406 1407 1408 1408 1409 1410 1410 1410 1411 1411 1412 1412 1412 1412 1412 1412 1412 1413 1413 1412 1412 1412 1412 1412 1412 1411 1411 1411 1410 1410 1410 1410 1410
1372 1373 1373 1373 1373 1374 1374 1374 1374 1375 1375 1375 1375 1375 1375 1375 1376 1376 1376 1375 1375 1377 1377 1378 1378 1379 1380 1380 1382 1383 1384 1384 1385 1385 1386 1387 1388 1389 1389 1390 1390 1391 1392 1393 1394 1395 1395 1396 1398 1399 1400 1401 1402 1403 1404 1405 1405 1406 1407 1407 1408 1408 1409 1409 1409 1409 1409 1409 1410 1410 1410 1410 1410 1409 1409 1409 1409 1409 1408 1408 1408 1408 1407 1407 1407 1407
1370 1370 1370 1370 1370 1371 1371 1371 1371 1372 1373 1373 1373 1372 1372 1372 1373 1374 1374 1373 1373 1374 1374 1375 1375 1376 1376 1377 1378 1380 1380 1380 1381 1381 1382 1383 1384 1385 1385 1386 1386 1387 1388 1389 1390 1391 1392 1393 1395 1396 1397 1398 1399 1400 1401 1402 1402 1403 1404 1404 1405 1405 1405 1405 1406 1406 1406 1406 1406 1407 1406 1406 1406 1406 1406 1406 1406 1406 1405 1405 1405 1405 1405 1405 1404 1404
1367 1367 1367 1367 1367 1368 1368 1369 1369 1370 1370 1370 1370 1369 1369 1369 1370 1371 1371 1371 1371 1372 1372 1372 1372 1372 1373 1374 1375 1376 1377 1377 1377 1377 1378 1379 1380 1381 1382 1382 1383 1384 1385 1385 1386 1387 1389 1390 1391 1393 1394 1395 1396 1397 1398 1399 1399 1400 1400 1401 1401 1402 1402 1402 1403 1403 1403 1404 1404 1404 1404 1403 1403 1403 1403 1403 1403 1403 1403 1402 1402 1402 1401 1401 1401 1401
1364 1364 1365 1365 1364 1364 1365 1365 1366 1366 1366 1366 1366 1366 1367 1368 1368 1369 1369 1369 1369 1370 1370 1370 1370 1370 1370 1371 1372 1373 1373 1374 1374 1374 1374 1375 1375 1377 1378 1379 1380 1380 1381 1382 1383 1384 1386 1387 1388 1389 1390 1392 1393 1394 1395 1395 1396 1397 1397 1398 1398 1399 1399 1400 1400 1400 1400 1400 1400 1400 1400 1400 1400 1400 1400 1400 1400 1400 1400 1399 1399 1399 1399 1398 1398 1398
1360 1361 1361 1361 1361 1361 1362 1362 1362 1362 1363 1363 1364 1365 1365 1366 1366 1366 1367 1366 1367 1368 1369 1368 1367 1367 1367 1367 1368 1369 1370 1370 1371 1370 1370 1370 1372 1373 1375 1375 1376 1377 1378 1379 1380 1381 1383 1384 1385 1386 1387 1388 1389 1390 1391 1392 1393 1393 1394 1395 1395 1396 1396 1397 1397 1397 1397 1397 1397 1397 1397 1397 1397 1397 1397 1397 1397 1397 1397 1396 1396 1396 1396 1395 1395 1395
1357 1358 1358 1357 1357 1358 1359 1359 1359 1360 1360 1361 1362 1363 1364 1364 1364 1364 1365 1364 1365 1366 1366 1366 1365 1365 1364 1364 1365 1366 1367 1368 1368 1367 1367 1367 1369 1370 1372 1373 1373 1374 1375 1375 1376 1378 1380 1381 1382 1383 1384 1385 1386 1387 1388 1389 1390 1390 1391 1392 1393 1393 1393 1394 1394 1394 1394 1394 1394 1394 1394 1394 1394 1394 1394 1394 1394 1394 1394 1394 1393 1393 1393 1392 1392 1392
1354 1354 1354 1355 1355 1355 1355 1356 1357 1357 1358 1359 1360 1360 1360 1360 1361 1362 1362 1363 1363 1364 1364 1364 1363 1363 1362 1362 1362 1363 1364 1365 1365 1365 1365 1365 1366 1368 1369 1370 1370 1370 1371 1372 1373 1375 1377 1378 1379 1380 1381 1383 1384 1385 1386 1387 1387 1388 1389 1389 1390 1390 1390 1391 1391 1391 1391 1391 1391 1391 1391 1391 1391 1391 1391 1391 1391 1391 1391 1390 1390 1390 1390 1390 1389 1389
1350 1350 1351 1351 1351 1352 1353 1354 1354 1354 1355 1356 1357 1357 1358 1358 1359 1360 1360 1361 1361 1361 1361 1361 1361 1360 1360 1360 1360 1360 1361 1362 1362 1362 1362 1362 1363 1365 1366 1367 1367 1367 1368 1369 1371 1372 1374 1375 1376 1377 1379 1380 1381 1383 1383 1384 1385 1385 1386 1386 1387 1387 1387 1387 1388 1388 1388 1388 1388 1388 1388 1389 1389 1389 1389 1389 1388 1388 1388 1388 1387 1387 1387 1386 1386 1386
1346 1346 1347 1347 1348 1349 1350 1351 1351 1352 1353 1353 1354 1355 1355 1356 1357 1358 1358 1358 1358 1358 1358 1358 1358 1358 1358 1357 1358 1358 1360 1360 1360 1360 1360 1359 1360 1362 1364 1364 1364 1365 1365 1366 1368 1370 1371 1372 1374 1375 1376 1378 1379 1380 1380 1381 1382 1383 1383 1383 1384 1384 1384 1384 1385 1385 1385 1385 1385 1385 1385 1385 1385 1386 1386 1386 1385 1385 1385 1385 1385 1384 1384 1383 1383 1382
1342 1343 1343 1343 1344 1346 1346 1347 1347 1348 1349 1350 1351 1352 1353 1354 1355 1355 1355 1355 1355 1355 1356 1356 1355 1355 1355 1355 1355 1356 1357 1358 1358 1358 1357 1357 1358 1359 1361 1361 1361 1362 1362 1364 1365 1367 1369 1370 1371 1373 1374 1375 1376 1377 1378 1378 1379 1380 1380 1380 1380 1381 1381 1381 1382 1382 1382 1382 1382 1382 1382 1382 1383 1383 1383 1383 1383 1382 1382 1382 1381 1381 1380 1380 1380 1379
1337 1338 1338 1340 1341 1342 1343 1343 1344 1345 1346 1348 1349 1349 1350 1351 1352 1352 1352 1353 1353 1353 1353 1353 1352 1352 1352 1353 1353 1354 1355 1356 1356 1355 1355 1355 1356 1356 1358 1359 1359 1359 1360 1361 1363 1365 1366 1367 1369 1370 1371 1372 1373 1374 1375 1375 1376 1376 1377 1377 1377 1378 1378 1379 1379 1379 1379 1379 1379 1379 1379 1379 1379 1380 1380 1380 1380 1380 1379 1379 1378 1378 1377 1377 1376 1376
1333 1333 1335 1337 1338 1338 1339 1340 1341 1342 1344 1345 1345 1345 1346 1348 1348 1349 1349 1350 1350 1350 1349 1349 1349 1350 1350 1351 1351 1352 1353 1353 1353 1354 1354 1354 1353 1354 1355 1356 1357 1357 1358 1359 1361 1363 1364 1365 1366 1367 1368 1369 1370 1371 1372 1372 1373 1373 1374 1374 1375 1375 1375 1375 1376 1376 1376 1376 1376 1376 1376 1376 1376 1376 1376 1376 1376 1376 1376 1375 1375 1375 1374 1374 1373 1373
1330 1330 1332 1334 1334 1335 1335 1337 1339 1340 1340 1341 1341 1341 1342 1344 1345 1345 1346 1346 1346 1346 1346 1346 1347 1348 1349 1349 1350 1350 1351 1351 1351 1352 1353 1352 1351 1351 1353 1355 1355 1355 1355 1357 1359 1360 1361 1362 1363 1364 1365 1366 1367 1368 1369 1370 1370 1370 1371 1371 1372 1372 1372 1373 1373 1373 1373 1373 1373 1373 1373 1373 1373 1373 1373 1373 1373 1373 1373 1372 1372 1371 1371 1370 1370 1369
1327 1328 1330 1331 1331 1332 1333 1335 1336 1337 1337 1337 1338 1338 1340 1341 1342 1343 1344 1344 1344 1344 1345 1345 1346 1346 1347 1347 1348 1348 1348 1349 1350 1350 1350 1350 1350 1350 1351 1353 1353 1353 1353 1355 1357 1358 1359 1360 1360 1361 1363 1364 1365 1365 1366 1367 1367 1368 1368 1369 1369 1369 1370 1370 1370 1370 1370 1370 1370 1370 1370 1370 1370 1370 1370 1370 1370 1370 1370 1369 1369 1368 1368 1367 1366 1365
1327 1326 1327 1328 1329 1330 1331 1332 1333 1333 1334 1334 1335 1336 1337 1339 1340 1341 1341 1342 1342 1342 1343 1344 1344 1344 1344 1345 1345 1345 1346 1347 1347 1348 1348 1348 1348 1349 1350 1351 1351 1351 1352 1353 1355 1356 1356 1357 1358 1359 1360 1360 1362 1363 1363 1364 1364 1365 1365 1365 1366 1366 1367 1367 1367 1367 1367 1367 1367 1367 1367 1367 1367 1367 1367 1367 1367 1367 1366 1366 1365 1365 1364 1363 1363 1362
1327 1326 1325 1326 1327 1328 1329 1329 1330 1330 1331 1331 1332 1333 1335 1336 1337 1338 1339 1339 1339 1340 1340 1340 1340 1340 1341 1342 1342 1343 1343 1344 1345 1345 1345 1346 1346 1347 1348 1349 1349 1350 1350 1351 1352 1353 1354 1354 1355 1356 1357 1358 1359 1360 1360 1361 1362 1362 1362 1363 1363 1363 1364 1364 1364 1364 1364 1364 1364 1364 1364 1364 1364 1364 1364 1364 1364 1364 1363 1363 1362 1361 1360 1360 1359 1358
1326 1326 1325 1325 1325 1325 1326 1327 1327 1328 1329 1329 1330 1330 1332 1333 1335 1335 1335 1335 1335 1336 1337 1337 1337 1338 1339 1340 1340 1340 1341 1342 1342 1343 1343 1344 1345 1345 1345 1346 1347 1348 1349 1350 1350 1351 1352 1352 1353 1353 1354 1355 1356 1357 1358 1358 1359 1359 1360 1360 1360 1360 1360 1361 1361 1361 1361 1361 1361 1361 1361 1361 1361 1361 1361 1361 1361 1360 1360 1359 1359 1358 1357 1356 1355 1354
1324 1325 1325 1325 1324 1323 1323 1324 1325 1325 1326 1326 1327 1328 1329 1330 1330 1330 1330 1330 1332 1334 1334 1334 1334 1335 1336 1336 1337 1337 1339 1340 1340 1340 1341 1342 1342 1342 1343 1344 1345 1346 1347 1348 1348 1349 1350 1350 1350 1351 1352 1352 1353 1354 1355 1355 1356 1356 1356 1357 1357 1357 1358 1358 1358 1358 1358 1358 1358 1358 1358 1358 1358 1358 1358 1358 1358 1357 1357 1356 1355 1355 1354 1353 1351 1350
1320 1321 1322 1323 1324 1323 1323 1322 1322 1323 1323 1324 1325 1325 1325 1325 1325 1325 1325 1328 1330 1330 1330 1330 1331 1332 1333 1334 1335 1335 1336 1337 1337 1338 1340 1340 1340 1340 1340 1342 1344 1344 1345 1346 1346 1347 1347 1347 1347 1348 1349 1350 1350 1351 1351 1352 1353 1353 1353 1354 1354 1354 1355 1355 1355 1355 1355 1355 1355 1355 1355 1355 1355 1355 1355 1355 1355 1354 1354 1353 1352 1352 1350 1349 1347 1346
1317 1318 1318 1319 1320 1322 1322 1322 1321 1321 1321 1322 1323 1324 1323 1321 1320 1321 1323 1325 1327 1326 1326 1327 1328 1329 1330 1332 1333 1333 1333 1333 1335 1336 1337 1338 1337 1337 1339 1340 1341 1342 1343 1344 1345 1345 1344 1344 1345 1345 1346 1347 1348 1348 1348 1349 1349 1350 1350 1350 1350 1351 1351 1352 1352 1352 1352 1352 1351 1351 1351 1351 1351 1351 1351 1351 1351 1351 1350 1350 1350 1349 1347 1345 1344 1342
1314 1315 1315 1315 1316 1317 1318 1319 1320 1320 1320 1320 1321 1321 1322 1320 1318 1319 1320 1322 1323 1323 1324 1324 1325 1327 1328 1330 1330 1330 1330 1330 1332 1334 1335 1335 1335 1335 1337 1338 1338 1339 1340 1341 1342 1342 1341 1341 1342 1343 1344 1345 1345 1345 1345 1346 1346 1346 1347 1347 1347 1347 1348 1348 1349 1349 1348 1348 1348 1348 1348 1348 1348 1348 1348 1348 1348 1347 1347 1347 1346 1345 1344 1342 1340 1339
1311 1312 1312 1313 1313 1314 1315 1315 1316 1317 1318 1319 1319 1319 1320 1319 1318 1317 1317 1318 1319 1320 1321 1322 1323 1324 1325 1326 1326 1326 1327 1328 1330 1331 1332 1332 1332 1333 1335 1335 1336 1337 1338 1338 1339 1339 1339 1339 1340 1340 1341 1342 1342 1342 1343 1343 1343 1343 1344 1344 1344 1344 1344 1345 1345 1345 1345 1345 1345 1345 1345 1345 1345 1345 1345 1345 1345 1344 1344 1343 1343 1342 1340 1339 1337 1335
1309 1309 1309 1310 1310 1311 1311 1312 1312 1313 1314 1315 1316 1316 1317 1317 1317 1316 1315 1315 1315 1317 1318 1320 1321 1322 1323 1323 1324 1324 1325 1326 1328 1329 1330 1330 1330 1331 1332 1333 1334 1335 1335 1336 1336 1337 1337 1337 1338 1339 1339 1340 1340 1340 1340 1340 1340 1340 1340 1340 1340 1340 1341 1341 1342 1341 1341 1341 1341 1341 1341 1341 1341 1341 1341 1341 1341 1341 1340 1340 1340 1339 1338 1336 1334 1332
1306 1306 1306 1307 1307 1308 1308 1309 1310 1310 1310 1311 1312 1313 1314 1315 1315 1315 1314 1313 1313 1314 1315 1316 1318 1319 1320 1321 1321 1322 1323 1324 1326 1327 1327 1328 1328 1329 1330 1330 1331 1332 1333 1334 1334 1335 1335 1335 1335 1336 1337 1337 1337 1337 1337 1337 1337 1337 1337 1337 1337 1337 1338 1338 1338 1338 1338 1338 1338 1338 1338 1338 1338 1338 1338 1338 1337 1337 1337 1336 1336 1335 1335 1333 1332 1330
1303 1303 1303 1304 1304 1305 1305 1306 1306 1307 1307 1308 1309 1310 1310 1311 1313 1313 1313 1312 1311 1310 1311 1312 1314 1316 1317 1318 1319 1319 1320 1321 1323 1325 1325 1325 1326 1326 1327 1328 1329 1330 1330 1331 1331 1332 1332 1332 1333 1334 1334 1334 1334 1334 1335 1335 1335 1335 1335 1334 1334 1334 1335 1335 1335 1335 1335 1335 1334 1334 1334 1334 1334 1334 1334 1334 1334 1333 1333 1332 1332 1331 1331 1330 1329 1328
1300 1300 1300 1301 1301 1301 1302 1303 1303 1304 1304 1305 1305 1306 1307 1308 1309 1310 1311 1311 1310 1309 1309 1310 1311 1313 1314 1315 1316 1316 1317 1319 1321 1322 1323 1323 1324 1324 1325 1325 1326 1327 1328 1328 1329 1329 1330 1330 1330 1331 1331 1331 1331 1331 1331 1332 1332 1332 1332 1331 1331 1331 1331 1332 1332 1332 1331 1331 1331 1331 1331 1331 1330 1330 1330 1330 1330 1330 1329 1329 1328 1328 1327 1326 1326 1325
1297 1297 1297 1298 1298 1298 1299 1300 1300 1301 1301 1302 1303 1303 1304 1305 1306 1307 1308 1309 1309 1309 1308 1308 1308 1310 1311 1312 1314 1315 1315 1317 1319 1320 1320 1321 1321 1322 1323 1323 1324 1325 1325 1326 1326 1326 1327 1327 1328 1329 1329 1329 1329 1329 1329 1329 1330 1329 1329 1329 1329 1329 1329 1329 1329 1329 1328 1328 1328 1327 1327 1327 1327 1327 1327 1326 1326 1326 1325 1325 1324 1324 1323 1323 1322 1321
1294 1294 1294 1295 1295 1295 1296 1296 1297 1298 1299 1300 1300 1301 1301 1302 1303 1304 1305 1306 1306 1307 1307 1306 1306 1306 1308 1310 1311 1313 1314 1315 1316 1317 1318 1318 1319 1320 1320 1321 1321 1322 1322 1323 1324 1325 1325 1325 1325 1326 1326 1325 1325 1326 1326 1326 1326 1326 1326 1326 1326 1326 1326 1326 1326 1326 1325 1325 1325 1324 1324 1324 1324 1324 1323 1323 1323 1322 1321 1320 1320 1320 1319 1318 1317 1316
1291 1291 1291 1292 1292 1292 1293 1294 1295 1295 1297 1297 1298 1299 1299 1300 1300 1301 1302 1303 1303 1304 1304 1304 1304 1305 1305 1307 1309 1310 1312 1313 1313 1314 1315 1315 1316 1317 1318 1318 1319 1319 1320 1320 1321 1322 1322 1322 1322 1323 1323 1323 1323 1323 1323 1324 1324 1323 1323 1323 1323 1323 1322 1323 1323 1323 1322 1322 1321 1321 1321 1321 1320 1320 1320 1320 1319 1319 1317 1317 1316 1316 1315 1314 1313 1311
1288 1289 1289 1289 1290 1290 1290 1291 1292 1293 1294 1295 1296 1296 1297 1297 1298 1299 1299 1300 1300 1301 1301 1302 1302 1303 1303 1304 1305 1307 1308 1309 1310 1311 1312 1313 1313 1314 1315 1316 1316 1317 1318 1318 1319 1319 1320 1320 1320 1320 1320 1320 1320 1320 1320 1320 1320 1320 1321 1320 1320 1319 1319 1320 1320 1319 1319 1319 1318 1318 1317 1317 1317 1317 1316 1316 1315 1315 1314 1313 1312 1312 1311 1310 1309 1307
1286 1286 1286 1287 1287 1288 1288 1288 1289 1290 1292 1292 1293 1294 1294 1295 1295 1296 1296 1297 1297 1298 1299 1300 1300 1301 1301 1302 1302 1304 1305 1306 1307 1308 1309 1310 1311 1312 1313 1313 1314 1315 1315 1316 1316 1316 1317 1317 1317 1317 1317 1317 1317 1317 1317 1317 1317 1318 1319 1318 1316 1316 1316 1316 1316 1316 1316 1315 1315 1315 1315 1314 1314 1314 1313 1313 1312 1312 1311 1310 1309 1308 1307 1307 1306 1305
1283 1283 1284 1285 1285 1285 1286 1286 1287 1288 1289 1290 1290 1290 1291 1291 1292 1292 1293 1294 1294 1295 1295 1297 1298 1299 1299 1299 1300 1300 1302 1303 1305 1306 1307 1308 1309 1310 1310 1311 1312 1312 1313 1313 1314 1314 1314 1314 1315 1315 1314 1315 1315 1315 1314 1314 1314 1315 1315 1315 1314 1313 1313 1313 1313 1313 1313 1312 1312 1312 1312 1311 1311 1310 1310 1310 1309 1308 1308 1307 1306 1305 1304 1303 1302 1301
1280 1281 1281 1282 1283 1284 1285 1285 1285 1286 1286 1286 1287 1287 1287 1288 1289 1289 1290 1290 1291 1291 1292 1293 1295 1295 1296 1296 1297 1298 1299 1300 1302 1303 1304 1305 1306 1307 1308 1309 1309 1310 1310 1311 1311 1310 1311 1311 1312 1311 1311 1312 1312 1312 1311 1311 1311 1312 1312 1312 1312 1312 1310 1309 1309 1310 1310 1309 1309 1309 1308 1308 1308 1307 1307 1306 1305 1305 1304 1303 1302 1301 1300 1300 1299 1297
1278 1279 1280 1280 1281 1282 1283 1283 1283 1283 1283 1283 1284 1284 1284 1285 1286 1287 1287 1288 1288 1289 1290 1290 1291 1292 1293 1293 1294 1295 1296 1297 1299 1300 1301 1303 1304 1305 1306 1306 1307 1307 1308 1308 1308 1308 1308 1309 1308 1308 1309 1310 1310 1309 1308 1308 1308 1309 1309 1309 1309 1309 1307 1306 1306 1307 1307 1306 1305 1305 1305 1305 1305 1304 1303 1302 1301 1300 1300 1299 1298 1297 1296 1296 1295 1294
1276 1277 1278 1279 1279 1280 1280 1280 1280 1280 1281 1281 1281 1281 1282 1282 1283 1284 1285 1285 1285 1286 1287 1288 1289 1290 1290 1290 1291 1292 1293 1295 1296 1297 1298 1300 1301 1302 1303 1304 1304 1305 1305 1305 1305 1305 1305 1305 1305 1306 1307 1307 1307 1307 1306 1305 1305 1305 1305 1306 1306 1305 1304 1303 1304 1304 1303 1302 1302 1302 1302 1302 1302 1301 1300 1298 1297 1297 1296 1295 1294 1293 1292 1292 1291 1290
1275 1275 1276 1276 1277 1277 1277 1277 1278 1278 1278 1278 1279 1279 1280 1280 1281 1282 1282 1283 1283 1284 1284 1285 1286 1286 1286 1287 1288 1290 1291 1292 1293 1294 1295 1297 1298 1300 1300 1301 1301 1302 1302 1302 1302 1302 1303 1303 1303 1304 1305 1305 1305 1304 1303 1303 1302 1302 1302 1302 1303 1302 1301 1300 1300 1300 1300 1299 1299 1298 1299 1300 1299 1298 1296 1295 1293 1293 1292 1291 1290 1290 1289 1288 1287 1286
1272 1273 1274 1274 1274 1275 1275 1275 1275 1275 1276 1276 1276 1277 1278 1278 1279 1280 1280 1281 1281 1282 1282 1283 1284 1284 1284 1285 1286 1287 1288 1289 1290 1291 1292 1294 1296 1297 1298 1298 1299 1299 1299 1300 1300 1300 1300 1300 1301 1302 1303 1303 1302 1300 1300 1300 1300 1300 1299 1299 1299 1299 1298 1297 1297 1297 1296 1296 1295 1295 1296 1296 1296 1294 1293 1291 1290 1289 1288 1287 1286 1285 1285 1284 1283 1282
1270 1270 1271 1272 1272 1272 1272 1273 1273 1273 1273 1274 1274 1275 1276 1276 1277 1277 1278 1279 1279 1280 1280 1281 1281 1281 1282 1283 1284 1284 1285 1286 1288 1289 1290 1292 1293 1294 1295 1296 1296 1297 1297 1297 1297 1298 1298 1298 1299 1299 1300 1300 1299 1297 1296 1297 1297 1297 1296 1296 1296 1295 1295 1294 1293 1294 1294 1293 1292 1292 1293 1293 1292 1291 1290 1288 1286 1285 1283 1283 1282 1281 1281 1280 1280 1278
1267 1268 1269 1269 1270 1270 1270 1270 1270 1271 1271 1271 1272 1273 1274 1274 1275 1275 1276 1276 1277 1278 1279 1279 1279 1280 1280 1281 1281 1282 1284 1285 1286 1287 1288 1289 1290 1291 1293 1293 1294 1294 1295 1295 1295 1295 1295 1295 1295 1296 1296 1296 1295 1295 1294 1294 1294 1294 1294 1293 1293 1292 1291 1290 1290 1290 1290 1290 1289 1289 1290 1289 1289 1288 1287 1285 1283 1280 1279 1278 1278 1277 1277 1276 1275 1274
1265 1265 1266 1267 1267 1267 1268 1268 1268 1269 1269 1270 1270 1271 1272 1272 1273 1273 1274 1274 1275 1276 1276 1277 1277 1278 1278 1279 1280 1280 1282 1283 1284 1285 1286 1287 1288 1289 1290 1290 1291 1292 1292 1292 1292 1293 1293 1293 1292 1292 1292 1292 1292 1292 1291 1290 1290 1291 1291 1290 1290 1290 1289 1287 1286 1286 1287 1286 1286 1286 1286 1285 1285 1285 1284 1283 1280 1277 1275 1274 1273 1273 1272 1272 1272 1270
1263 1263 1264 1264 1265 1265 1265 1266 1266 1266 1267 1268 1268 1269 1270 1270 1271 1271 1272 1272 1273 1274 1274 1275 1275 1276 1276 1277 1278 1279 1280 1280 1281 1282 1283 1284 1285 1286 1287 1288 1288 1289 1290 1290 1290 1290 1290 1290 1289 1288 1288 1288 1289 1289 1289 1288 1288 1288 1288 1287 1286 1286 1286 1285 1284 1283 1284 1283 1283 1283 1283 1282 1281 1281 1280 1279 1277 1274 1272 1270 1269 1268 1268 1269 1268 1266